Weather Roundup
Issued by NWS

Home | Current Version | Previous Version | Graphics & Text | Print | Product List | Glossary Off
Versions: 1 2 3 4 5 6 7 8 9 10 11 12 13 14 15 16 17 18 19 20 21 22 23 24 25 26 27 28 29 30 31 32 33 34 35 36 37 38 39 40 41 42 43 44 45 46 47 48 49 50

000
NZUS93 KARX 080510
HRRWXR

CURRENT HOURLY OBSERVATIONS ACROSS
MUCH OF THE UPPER MISSISSIPPI VALLEY
NATIONAL WEATHER SERVICE LA CROSSE WI
1100 PM CST WED DEC 07 2016


...SOUTHEAST MINNESOTA...


CITY           SKY/WX    TMP DP  RH WIND       PRES   REMARKS
ROCHESTER      LGT SNOW  13   7  77 W21G31    30.13R WCI  -5
ROCHESTER/MAYO CLOUDY    14   8  76 W24G31    30.13R WCI  -5
WINONA         CLOUDY    19  12  73 W13G23    30.16R WCI   7
AUSTIN         CLEAR     10   5  79 W18G26    30.17S WCI  -8
ALBERT LEA     CLEAR     16   9  73 W13G25    30.19R WCI   2
DODGE CENTER   PTCLDY    12   7  79 W20       30.14R WCI  -6
PRESTON        LGT SNOW  12   7  79 W20G26    30.14S WCI  -6
OWATONNA       CLOUDY    12   7  79 W18       30.17S WCI  -5
FARIBAULT      NOT AVBL
$$

...ELSEWHERE IN MINNESOTA...


CITY           SKY/WX    TMP DP  RH WIND       PRES   REMARKS
MINNEAPOLIS    FLURRIES  16   8  71 W20G25    30.14R WCI  -1
INTNL FALLS    LGT SNOW  22  17  81 N14       30.00R WCI   9
DULUTH         FLURRIES  19  15  84 W13       29.91R WCI   6
RED WING       FLURRIES  18   9  68 W15G21    30.13R WCI   3
REDWOOD FALLS  CLOUDY    13   5  70 W22G30    30.24S WCI  -6
MANKATO        FLURRIES  12   7  80 W15       30.21R WCI  -4
WORTHINGTON    CLEAR      7   2  80 W24G30    30.28R WCI -14
FAIRMONT       CLEAR     11   4  73 NW20      30.26R WCI  -7
$$

...SOUTHWEST WISCONSIN...


CITY           SKY/WX    TMP DP  RH WIND       PRES   REMARKS
LA CROSSE      CLOUDY    20   9  62 W18G28    30.15R WCI   5
PRAIRIE DU CHI FLURRIES  21  12  67 W17G26    30.19R WCI   7
BOSCOBEL       LGT SNOW  21  13  71 W9        30.17R WCI  11
LONE ROCK      CLOUDY    22  12  65 W13       30.14R WCI  10
PLATTEVILLE    CLOUDY    22  17  80 W20G28    30.14R WCI   7
FORT MC COY    FLURRIES  19  13  77 W8G18     30.10S WCI   9
CAMP DOUGLAS   FLURRIES  19  12  73 W15       30.07R WCI   5
MAUSTON-NEW LI CLOUDY    20  11  68 W13G21    30.07S WCI   7
VIROQUA        CLOUDY    17  10  71 W14G24    30.09S WCI   3
WIS DELLS      CLOUDY    19  10  68 W15G22    30.08R WCI   5
$$

...ELSEWHERE IN WISCONSIN...


CITY           SKY/WX    TMP DP  RH WIND       PRES   REMARKS
MILWAUKEE      FLURRIES  23  13  65 W15G24    30.09R WCI  10
MADISON        FLURRIES  21  11  65 W10G20    30.09R WCI  10
GREEN BAY      CLOUDY    23  14  68 W17       30.00R WCI   9
EAU CLAIRE     FLURRIES  17  10  74 W13G22    30.07R WCI   4
BLACK RVR FLS  CLOUDY    19  10  66 W15G24    30.09R WCI   5
MEDFORD        FLURRIES  14   8  76 W17       29.96S WCI  -2
WAUSAU         FLURRIES  17  10  74 W20G32    29.97R WCI   1
WIS RAPIDS     CLOUDY    19  12  74 W9G21     30.04R WCI   8
MARSHFIELD     FLURRIES  17  10  74 W14G23    30.00R WCI   3
RICE LAKE      LGT SNOW  16  10  79 W14G20    30.04R WCI   1
$$

...NORTHEAST IOWA...


CITY           SKY/WX    TMP DP  RH WIND       PRES   REMARKS
WATERLOO       CLOUDY    17   7  64 NW14G29   30.25R WCI   3
DUBUQUE        CLOUDY    20  11  68 W24       30.17R WCI   3
DECORAH        CLOUDY    14   7  73 W12G29    30.16R WCI   0
MASON CITY     MOCLDY    12   4  70 W18G31    30.25R WCI  -6
CHARLES CITY   CLOUDY    14   7  73 W22       30.22R WCI  -4
OELWEIN        CLOUDY    18  12  79 W22G30    30.21R WCI   0
$$

...ELSEWHERE IN IOWA...


CITY           SKY/WX    TMP DP  RH WIND       PRES   REMARKS
DES MOINES     PTCLDY    18   7  62 NW21G30   30.35R WCI   1
IOWA CITY      CLEAR     20  11  68 W15       30.30R WCI   6
FORT DODGE     CLOUDY    16   5  62 W13G21    30.31R WCI   2
MARSHALLTOWN   CLOUDY    17  10  74 NW21      30.29R WCI   0
CEDAR RAPIDS   PTCLDY    17  12  80 W18       30.25R WCI   1
$$

...NORTHERN ILLINOIS...


CITY           SKY/WX    TMP DP  RH WIND       PRES   REMARKS
CHICAGO-OHARE  FLURRIES  24  15  68 W17G29    30.14S WCI  11
CHICAGO-MIDWAY FLURRIES  25  13  60 W17G30    30.16S WCI  12
MOLINE         CLEAR     22  12  65 W21G29    30.26R WCI   6
ROCKFORD       FLURRIES  24  14  65 W16       30.17S WCI  11
PEORIA         MOCLDY    23  13  65 W14G20    30.29R WCI  11
$$

NOTE: "FAIR" INDICATES FEW OR NO CLOUDS BELOW 12,000 FEET WITH NO
SIGNIFICANT WEATHER AND/OR OBSTRUCTIONS TO VISIBILITY. WIND
SPEEDS ARE IN MILES-PER-HOUR.




USA.gov is the U.S. government's official web portal to all federal, state and local government web resources and services.